Regional Weather Roundup
Issued by NWS

Home | Current Version | Previous Version | Graphics & Text | Print | Product List | Glossary On
Versions: 1 2 3 4 5 6 7 8 9 10 11 12 13 14 15 16 17 18 19 20 21 22 23 24 25 26 27 28 29 30 31 32 33 34 35 36 37 38 39 40 41 42 43 44 45 46 47 48 49 50
000
ASUS43 KTOP 132359
RWRKS

WEATHER ROUNDUP FOR KANSAS
NATIONAL WEATHER SERVICE GOODLAND KS
600 PM CST WED DEC 13 2017

NOTE:  "FAIR" INDICATES FEW OR NO CLOUDS BELOW 12,000 FEET WITH NO
SIGNIFICANT WEATHER AND/OR OBSTRUCTIONS TO VISIBILITY.

KSZ001>006-013>018-027>032-041>047-140100-
NORTHWEST KANSAS

CITY           SKY/WX    TMP DP  RH WIND       PRES   REMARKS
GOODLAND       CLEAR     42  14  32 N9        29.97S
6HR MIN TEMP:  42; 6HR MAX TEMP:  55;

HAYS           CLEAR     46  14  27 W3        29.97R
HILL CITY      CLOUDY    44  15  31 N12       29.97R
6HR MIN TEMP:  44; 6HR MAX TEMP:  59;

RUSSELL        CLEAR     42  17  36 N10       29.93R
6HR MIN TEMP:  42; 6HR MAX TEMP:  61;

$$

KSZ061>065-074>080-084>089-140100-
SOUTHWEST KANSAS

CITY           SKY/WX    TMP DP  RH WIND       PRES   REMARKS
DODGE CITY     CLEAR     42  14  32 N9        29.95F
6HR MIN TEMP:  42; 6HR MAX TEMP:  62;

GARDEN CITY    CLEAR     40  15  36 N10       29.97R WCI  33
6HR MIN TEMP:  38; 6HR MAX TEMP:  60;

GREAT BEND     CLEAR     45  14  28 N8        29.95R
LIBERAL        CLEAR     44  15  31 W6        29.98R HAZE
$$

KSZ066>073-081>083-090>101-140100-
SOUTHEAST KANSAS

CITY           SKY/WX    TMP DP  RH WIND       PRES   REMARKS
CHANUTE        CLEAR     50  25  37 NW8       29.86R
6HR MIN TEMP:  50; 6HR MAX TEMP:  64;

COFFEYVILLE    CLEAR     50  26  39 NW9       29.85R
6HR MIN TEMP:  50; 6HR MAX TEMP:  66;

HUTCHINSON     CLEAR     43  21  41 NW6       29.91R
6HR MIN TEMP:  43; 6HR MAX TEMP:  64;

MEDICINE LODGE   N/A     52  22  30 N5        29.92R
NEWTON         CLEAR     47  23  38 NW3       29.91R
PARSONS        CLEAR     49  26  41 N8        29.86R
6HR MIN TEMP:  49; 6HR MAX TEMP:  66;

WICHITA INTL   PTCLDY    57  24  28 N12       29.89R
6HR MIN TEMP:  55; 6HR MAX TEMP:  66;

WICHITA JABRA  CLEAR     47  23  38 N9        29.90R
6HR MIN TEMP:  46; 6HR MAX TEMP:  64;

WICHITA MCCONL CLEAR     53  22  29 N13       29.89R
WINFIELD       CLEAR     45  22  40 NW8       29.90R
6HR MIN TEMP:  44; 6HR MAX TEMP:  65;

$$

KSZ007>012-019>026-033>040-048>060-102>105-140100-
NORTHEAST KANSAS

CITY           SKY/WX    TMP DP  RH WIND       PRES   REMARKS
CONCORDIA      CLOUDY    45  24  43 NW9       29.91R
6HR MIN TEMP:  45; 6HR MAX TEMP:  59;

EMPORIA        CLEAR     47  24  40 NW7       29.87R
6HR MIN TEMP:  47; 6HR MAX TEMP:  62;

LAWRENCE       CLEAR     47  27  45 NW10      29.84R
6HR MIN TEMP:  47; 6HR MAX TEMP:  62;

MANHATTAN      CLOUDY    50  26  39 N5        29.89R
6HR MIN TEMP:  50; 6HR MAX TEMP:  62;

OLATHE IND     CLEAR     48  27  44 NW13      29.84R
6HR MIN TEMP:  48; 6HR MAX TEMP:  60;

OLATHE EXE     CLEAR     50  27  40 NW13      29.82R
6HR MIN TEMP:  50; 6HR MAX TEMP:  59;

SALINA         CLOUDY    49  24  37 N7        29.91R
6HR MIN TEMP:  49; 6HR MAX TEMP:  64;

TOPEKA BILLARD CLEAR     49  28  44 NW9       29.85R
6HR MIN TEMP:  49; 6HR MAX TEMP:  61;

TOPEKA FORBES  CLEAR     50  28  42 NW14      29.85R
6HR MIN TEMP:  50; 6HR MAX TEMP:  63;

$$




USA.gov is the U.S. government's official web portal to all federal, state and local government web resources and services.